When you browse on this site, cookies collect data to enhance your experience and personalize the content and advertising you see.
Visit our Privacy Policy to learn more. By continuing to use the site, you agree to this use of cookies and data.
  • en Suisse
  • Liste des pays
  • À 7 jours
  • Température de l'eau
  • Carte météo
  • Widgets météo
  • user-avatar
    Se connecter

    Météo par heure à Franceville

    Ce jour, 24 Septembre, Mardi

    Heure Température Précipitation Vent Pression Humidité
    00:00 +26°C° 0 mm 1 m/s 731 mmHg 91%
    01:00 +25°C° 0 mm 1 m/s 731 mmHg 93%
    02:00 +25°C° 0 mm 1 m/s 731 mmHg 94%
    03:00 +25°C° 0 mm 1 m/s 731 mmHg 95%
    04:00 +25°C° 0 mm 1 m/s 731 mmHg 96%
    05:00 +25°C° 0 mm 1 m/s 731 mmHg 94%
    06:00 +25°C° 0 mm 1 m/s 732 mmHg 92%
    07:00 +25°C° 0 mm 1 m/s 732 mmHg 91%
    08:00 +28°C° 0 mm 1 m/s 732 mmHg 81%
    09:00 +30°C° 0 mm 1 m/s 732 mmHg 72%
    10:00 +32°C° 0 mm 1 m/s 733 mmHg 63%
    11:00 +33°C° 0 mm 1 m/s 732 mmHg 59%
    12:00 +33°C° 0 mm 1 m/s 731 mmHg 56%
    13:00 +34°C° 0 mm 1 m/s 730 mmHg 53%
    14:00 +34°C° 0.1 mm 1 m/s 729 mmHg 53%
    15:00 +34°C° 0.1 mm 1 m/s 728 mmHg 54%
    16:00 +34°C° 0.1 mm 1 m/s 728 mmHg 55%
    17:00 +32°C° 0.2 mm 1 m/s 728 mmHg 61%
    18:00 +30°C° 0.2 mm 1 m/s 729 mmHg 67%
    19:00 +29°C° 0.2 mm 1 m/s 729 mmHg 73%
    20:00 +28°C° 1.3 mm 1 m/s 730 mmHg 79%
    21:00 +27°C° 1.3 mm 1 m/s 730 mmHg 85%
    22:00 +26°C° 1.3 mm 1 m/s 730 mmHg 91%
    23:00 +26°C° 3.1 mm 1 m/s 730 mmHg 91%

    Demain, 25 Septembre, Mercredi

    Heure Température Précipitation Vent Pression Humidité
    00:00 +26°C° 3.1 mm 2 m/s 730 mmHg 90%
    01:00 +26°C° 3.1 mm 2 m/s 731 mmHg 90%
    02:00 +25°C° 2.8 mm 2 m/s 730 mmHg 91%
    03:00 +25°C° 2.8 mm 2 m/s 730 mmHg 92%
    04:00 +25°C° 2.8 mm 2 m/s 730 mmHg 93%
    05:00 +25°C° 1.9 mm 2 m/s 731 mmHg 94%
    06:00 +25°C° 1.9 mm 2 m/s 732 mmHg 94%
    07:00 +25°C° 1.9 mm 2 m/s 732 mmHg 94%
    08:00 +26°C° 0.1 mm 2 m/s 733 mmHg 89%
    09:00 +27°C° 0.1 mm 2 m/s 733 mmHg 83%
    10:00 +29°C° 0.1 mm 2 m/s 733 mmHg 77%
    11:00 +30°C° 0.4 mm 2 m/s 732 mmHg 72%
    12:00 +31°C° 0.4 mm 2 m/s 731 mmHg 66%
    13:00 +34°C° 0.4 mm 2 m/s 730 mmHg 60%
    14:00 +32°C° 1.1 mm 2 m/s 730 mmHg 65%
    15:00 +31°C° 1.1 mm 1 m/s 729 mmHg 69%
    16:00 +31°C° 1.1 mm 1 m/s 729 mmHg 74%
    17:00 +29°C° 1.1 mm 1 m/s 729 mmHg 79%
    18:00 +28°C° 1.1 mm 1 m/s 729 mmHg 83%
    19:00 +27°C° 1.1 mm 1 m/s 730 mmHg 88%
    20:00 +26°C° 0 mm 1 m/s 730 mmHg 90%
    21:00 +26°C° 0 mm 1 m/s 730 mmHg 92%
    22:00 +25°C° 0 mm 1 m/s 730 mmHg 94%
    23:00 +25°C° 0 mm 1 m/s 730 mmHg 94%

    Après-demain, 26 Septembre, Jeudi

    Heure Température Précipitation Vent Pression Humidité
    00:00 +25°C° 0 mm 1 m/s 730 mmHg 95%
    01:00 +25°C° 0 mm 1 m/s 730 mmHg 95%
    02:00 +24°C° 0 mm 1 m/s 730 mmHg 96%
    03:00 +24°C° 0 mm 1 m/s 730 mmHg 96%
    04:00 +24°C° 0 mm 1 m/s 730 mmHg 97%
    05:00 +22°C° 0 mm 0 m/s 731 mmHg 95%
    06:00 +23°C° 0 mm 0 m/s 731 mmHg 94%
    07:00 +23°C° 0 mm 0 m/s 732 mmHg 93%
    08:00 +24°C° 0.1 mm 0 m/s 732 mmHg 86%
    09:00 +28°C° 0.1 mm 1 m/s 732 mmHg 80%
    10:00 +29°C° 0.1 mm 1 m/s 733 mmHg 74%
    11:00 +30°C° 0 mm 1 m/s 732 mmHg 68%
    12:00 +31°C° 0 mm 1 m/s 731 mmHg 62%
    13:00 +34°C° 0 mm 2 m/s 730 mmHg 56%
    14:00 +32°C° 1.1 mm 1 m/s 730 mmHg 63%
    15:00 +31°C° 1.1 mm 1 m/s 730 mmHg 70%
    16:00 +30°C° 1.1 mm 1 m/s 729 mmHg 77%
    17:00 +29°C° 3.1 mm 1 m/s 730 mmHg 83%
    18:00 +27°C° 3.1 mm 1 m/s 730 mmHg 89%
    19:00 +25°C° 3.1 mm 1 m/s 731 mmHg 95%
    20:00 +25°C° 2 mm 1 m/s 731 mmHg 96%
    21:00 +23°C° 2 mm 0 m/s 732 mmHg 96%
    22:00 +23°C° 2 mm 0 m/s 732 mmHg 96%
    23:00 +25°C° 1.6 mm 1 m/s 732 mmHg 97%

    27 Septembre, Vendredi

    Heure Température Précipitation Vent Pression Humidité
    00:00 +24°C° 1.6 mm 1 m/s 732 mmHg 97%
    01:00 +24°C° 1.6 mm 2 m/s 732 mmHg 97%
    02:00 +24°C° 0.6 mm 2 m/s 732 mmHg 97%
    03:00 +24°C° 0.6 mm 2 m/s 731 mmHg 97%
    04:00 +24°C° 0.6 mm 2 m/s 731 mmHg 96%
    05:00 +24°C° 0 mm 1 m/s 732 mmHg 96%
    06:00 +24°C° 0 mm 1 m/s 732 mmHg 95%
    07:00 +24°C° 0 mm 1 m/s 733 mmHg 95%
    08:00 +25°C° 0.2 mm 1 m/s 733 mmHg 89%
    09:00 +27°C° 0.2 mm 1 m/s 733 mmHg 84%
    10:00 +28°C° 0.2 mm 2 m/s 733 mmHg 78%
    11:00 +28°C° 0.5 mm 1 m/s 732 mmHg 78%
    12:00 +28°C° 0.5 mm 1 m/s 731 mmHg 79%
    13:00 +28°C° 0.5 mm 1 m/s 731 mmHg 79%
    14:00 +29°C° 0.3 mm 1 m/s 730 mmHg 75%
    15:00 +29°C° 0.3 mm 1 m/s 730 mmHg 71%
    16:00 +30°C° 0.3 mm 1 m/s 730 mmHg 68%
    17:00 +28°C° 0.2 mm 1 m/s 730 mmHg 75%
    18:00 +27°C° 0.2 mm 1 m/s 730 mmHg 83%
    19:00 +25°C° 0.2 mm 1 m/s 731 mmHg 90%
    20:00 +25°C° 0 mm 1 m/s 731 mmHg 91%
    21:00 +23°C° 0 mm 0 m/s 731 mmHg 91%
    22:00 +23°C° 0 mm 0 m/s 732 mmHg 92%
    23:00 +23°C° 0.4 mm 0 m/s 732 mmHg 93%

    28 Septembre, Samedi

    Heure Température Précipitation Vent Pression Humidité
    00:00 +22°C° 0.4 mm 0 m/s 731 mmHg 94%
    01:00 +22°C° 0.4 mm 0 m/s 731 mmHg 95%
    02:00 +22°C° 1.8 mm 0 m/s 731 mmHg 95%
    03:00 +22°C° 1.8 mm 0 m/s 731 mmHg 96%
    04:00 +22°C° 1.8 mm 0 m/s 731 mmHg 96%
    05:00 +22°C° 3 mm 0 m/s 732 mmHg 97%
    06:00 +24°C° 3 mm 1 m/s 732 mmHg 97%
    07:00 +23°C° 3 mm 1 m/s 733 mmHg 98%
    08:00 +24°C° 1 mm 1 m/s 733 mmHg 96%
    09:00 +24°C° 1 mm 1 m/s 733 mmHg 95%
    10:00 +24°C° 1 mm 1 m/s 733 mmHg 94%
    11:00 +25°C° 0.1 mm 1 m/s 732 mmHg 87%
    12:00 +27°C° 0.1 mm 1 m/s 732 mmHg 81%
    13:00 +28°C° 0.1 mm 1 m/s 731 mmHg 74%
    14:00 +28°C° 0 mm 1 m/s 731 mmHg 74%
    15:00 +28°C° 0 mm 1 m/s 730 mmHg 75%
    16:00 +28°C° 0 mm 1 m/s 730 mmHg 75%
    17:00 +27°C° 0 mm 1 m/s 730 mmHg 80%
    18:00 +26°C° 0 mm 1 m/s 730 mmHg 84%
    19:00 +25°C° 0 mm 1 m/s 730 mmHg 89%
    20:00 +22°C° 0 mm 0 m/s 731 mmHg 91%
    21:00 +22°C° 0 mm 0 m/s 731 mmHg 92%
    22:00 +22°C° 0 mm 0 m/s 732 mmHg 93%
    23:00 +22°C° 0 mm 0 m/s 732 mmHg 93%

    29 Septembre, Dimanche

    Heure Température Précipitation Vent Pression Humidité
    00:00 +22°C° 0 mm 0 m/s 732 mmHg 93%
    01:00 +22°C° 0 mm 0 m/s 731 mmHg 92%
    02:00 +22°C° 0 mm 0 m/s 731 mmHg 93%
    03:00 +22°C° 0 mm 0 m/s 731 mmHg 93%
    04:00 +22°C° 0 mm 0 m/s 731 mmHg 94%
    05:00 +22°C° 0.3 mm 0 m/s 732 mmHg 93%
    06:00 +22°C° 0.3 mm 0 m/s 732 mmHg 93%
    07:00 +22°C° 0.3 mm 0 m/s 733 mmHg 92%
    08:00 +23°C° 0.7 mm 0 m/s 733 mmHg 91%
    09:00 +23°C° 0.7 mm 0 m/s 733 mmHg 90%
    10:00 +24°C° 0.7 mm 0 m/s 733 mmHg 89%
    11:00 +26°C° 0.8 mm 1 m/s 732 mmHg 88%
    12:00 +27°C° 0.8 mm 1 m/s 731 mmHg 87%
    13:00 +27°C° 0.8 mm 1 m/s 730 mmHg 86%
    14:00 +27°C° 0.2 mm 1 m/s 730 mmHg 82%
    15:00 +28°C° 0.2 mm 1 m/s 730 mmHg 78%
    16:00 +28°C° 0.2 mm 1 m/s 729 mmHg 74%
    17:00 +27°C° 0.1 mm 1 m/s 729 mmHg 79%
    18:00 +26°C° 0.1 mm 1 m/s 730 mmHg 84%
    19:00 +25°C° 0.1 mm 1 m/s 730 mmHg 89%
    20:00 +25°C° 0.1 mm 1 m/s 731 mmHg 90%
    21:00 +24°C° 0.1 mm 1 m/s 731 mmHg 91%
    22:00 +24°C° 0.1 mm 1 m/s 732 mmHg 93%
    23:00 +24°C° 0.1 mm 1 m/s 732 mmHg 94%
    Voir plus